Location: Peebles
(55.6412°N, 3.1714°W)
Time: 11:33:50
(UTC+01:00)

OBJECT A - Pass Details

Date: 08 July 2022
Orbit: 611 x 632 km, 97.9° (Epoch: 16 August)

Event Time Altitude Azimuth Distance (km) Brightness Sun altitude
Exits shadow 00:00:03 - 196° (SSW) 2,086 ? -10.1°
Reaches altitude 10° 00:00:19 10° 197° (SSW) 1,988 ? -10.1°
Maximum altitude 00:04:16 35° 264° (W) 1,012 ? -10.3°
Drops below altitude 10° 00:08:15 10° 330° (NNW) 1,992 ? -10.5°
Sets 00:10:37 0° 340° (NNW) 2,899 ? -10.6°
